Regional Weather Roundup
Issued by NWS

Home | Current Version | Previous Version | Graphics & Text | Print | Product List | Glossary On
Versions: 1 2 3 4 5 6 7 8 9 10 11 12 13 14 15 16 17 18 19 20 21 22 23 24 25 26 27 28 29 30 31 32 33 34 35 36 37 38 39 40 41 42 43 44 45 46 47 48 49 50
012
ASUS43 KLSX 051857
RWRMO

WEATHER SUMMARY FOR MISSOURI
NATIONAL WEATHER SERVICE SPRINGFIELD MO
100 PM CST FRI FEB 05 2016

NOTE: "FAIR" INDICATES FEW OR NO CLOUDS BELOW 12,000 FEET WITH NO
       SIGNIFICANT WEATHER AND/OR OBSTRUCTIONS TO VISIBILITY.
       CURRENT SKY AND/OR WEATHER CONDITIONS ARE NOT AVAILABLE FOR
       CHILLICOTHE AND FARMINGTON.

MOZ001>031-035>038-043-044-053-054-052000-
...NORTHERN AND WESTERN MISSOURI...

CITY           SKY/WX    TMP DP  RH WIND       PRES   REMARKS
KANSAS CTY INT CLOUDY    35  21  56 S6        30.35F
LEE`S SUMMIT   CLOUDY    37  20  50 VRB3      30.34F
ST JOSEPH      CLOUDY    33  22  63 S7        30.36F WCI  27
CHILLICOTHE      N/A     33  23  66 S5        30.39F WCI  29

$$
MOZ066>068-077>081-088>096-101>105-052000-
...SOUTHWEST MISSOURI...

CITY           SKY/WX    TMP DP  RH WIND       PRES   REMARKS
SPRINGFIELD    MOSUNNY   50  19  29 W13       30.34F
JOPLIN         SUNNY     50  22  33 SW10      30.35F

$$
MOZ032>034-039>042-045>050-055>058-069>072-052000-
...CENTRAL MISSOURI...

CITY           SKY/WX    TMP DP  RH WIND       PRES   REMARKS
COLUMBIA       NOT AVBL
JEFFERSON CITY CLOUDY    37  17  44 CALM      30.40F
ROLLA          LGT RAIN  39  20  46 NW5       30.36F
SEDALIA        PTSUNNY   39  20  46 CALM      30.38F

$$
MOZ051-052-059>065-052000-
...EAST CENTRAL MISSOURI...

CITY           SKY/WX    TMP DP  RH WIND       PRES   REMARKS
ST LOUIS INTL  PTSUNNY   40  18  41 W3        30.40F

$$
MOZ072>076-082>087-097>100-106>115-052000-
...SOUTH CENTRAL AND SOUTHEAST MISSOURI...

CITY           SKY/WX    TMP DP  RH WIND       PRES   REMARKS
CAPE GIRARDEAU SUNNY     47  21  35 S6        30.40F
POPLAR BLUFF   SUNNY     49  24  37 S10       30.39F
WEST PLAINS    MOSUNNY   48  16  27 W10       30.37F

$$



USA.gov is the U.S. government's official web portal to all federal, state and local government web resources and services.